Showing default

TJS-6, 47613

Orbit data source: Space-Track

TJS-6, 47613 is a payload satellite owned by CASC (CN) in GEO that was launched on Thu, 04 Feb 2021 UTC via a CHANG ZHENG 3B launch vehicle from the Xichang Space Center, China (XSC). Payload-class satellites include a variety of spacecraft equipped with specific instruments for various scientific and technological missions. These include communications satellites like Starlink; space stations such as the ISS; scientific satellites like the Hubble; Earth observation satellites from companies like Planet Labs, Umbra, and HawkEye 360; GPS; miniature CubeSats for education and research; and military/defense satellites.

Not visible in the next 10 days
Identifier
47613, 2021-010A
Orbit
GEO
Country
Flag of CNCN / PRC
Related business
Manufacturer
SISE
Mission
Operational Defense Early Warn
Bus & Motor
FY-4?, Unknown motor
Mass
~4,000 kg wet, ~2,500 kg dry
Launch date (UTC)
2021-02-04 (5 years ago)
Launch vehicle
CHANG ZHENG 3B
Launch site
Xichang Space Center, China (XSC)
Object type
Payload
Rocket body
Debris
Shape & HBR
Box + 2 Pan, 15.0 m
Radar Cross Section
34.063 m², Large (>1 m²)

Expand to show TLE details & history
Last TLE update: 21 hours ago

TLE from 21 hours ago
0 TJS-6
1 47613U 21010A   26145.54840920  .00000042  00000-0  00000-0 0  9991
2 47613   0.5443  87.8468 0002281 326.3826 204.8419  1.00269417 19584
Epoch: 2026-05-25T13:09Z
TLE epoch observation values (Epoch: 2026-05-25T13:09:42.554Z)
Latitude
0.07041°
Longitude
178.50167°
Altitude
35,795.508 km
Speed
3.074 km/s
True Right ascension
17h 16m 15s
True Declination
0° 04' 13"
Sunlit
Object was in daylight at epoch
Visualization orbit readout
Latitude
Unknown
Longitude
Unknown
Altitude
Unknown
Speed
Unknown
Apparent Right ascension
Unknown
Apparent Declination
Unknown
Sunlit
N/A
Visualization observer readout
Local Sidereal Time
19:07:52
Azimuth
Unknown
Elevation
Unknown
Doppler factor
Unknown
Orbital elements
Apogee altitude
35,797.947 km
Perigee altitude
35,778.711 km
Semi-major axis
42,166.466 km
Eccentricity
0.00023
Inclination
0.5443°
RAAN
87.8468°
Arg. of periapsis
326.3826°
True anomaly
204.83092°
Mean anomaly
204.8419°
Eccentric anomaly
204.83641°
Mean motion
0.25066 °/min
Orbital period
1,436.18 mins
BSTAR
0
Loading maneuver chart data...
Computing Atmospheric mass density...
Loading historical data...
Loading historical data...
Loading historical data...
Loading historical data...
Loading historical data...
Loading historical data...
Loading historical data...
Other satellites on launch #10 in the year 2021 (2021-02-04 UTC)

Documentation

Showing up to 5 results
|